Zurück zum Katalog

SL-16 DEB

AktivLEO
NORAD 22291·DEBRIS·🇷🇺 Russia

Gestartet Dec 25, 1992 von Baikonur Cosmodrome

Loading…

Nächste Überflüge (nächste 24 Stunden)

TLE

AktuellSource: Space-Track

Epoche: Sep 14, 2026, 12:35 UTC

1 22291U 92093F   26257.52483977  .00000105  00000-0  13878-3 0  9992
2 22291  71.0097 309.3724 0210088 278.8933 146.9429 13.72573998688000

Verfolge SL-16 DEB in Echtzeit mit AllMySat

Download on the App Store